Weather in Sirmione

Italy     45°29′36″N   10°36′24″E
temp.,
°C
wind,
m/s
gust,
m/s
humid.,
%
clouds,
%
prec.,
mm/h
press.,
hPa
HPBL,
m
8 august, mon
mon823:00+22n4567100 0.5 1015106
02:00+21nw2274100 1.4 1016104
05:00+21nne4472100 0.1 1016124
08:00+23nne3364100 0.1 1017242
11:00+27ene334596 0.0 1016849
14:00+29e223994 0.0 10161460
17:00+30ne43386 0.0 10141402
20:00+27se225258 0.1 101534
9 august, tue
tue923:00+23ne23690 0.3 101856
02:00+22n34710 0.4 1018104
05:00+21ne23720 0.1 1018130
08:00+23n22630 0.1 1019223
11:00+27e22480 0.0 10191086
14:00+29e32440 0.0 10181423
17:00+30e32412 0.0 10161481
20:00+27ne2352100 0.0 101647
10 august, wed
wed1023:00+24ene11627 0.1 101935
02:00+22nne44694 0.2 101999
05:00+22nne336518 0.0 101998
08:00+25e134915 0.0 1020302
11:00+28ese45355 0.0 10201305
14:00+29ene33334 0.0 10191580
17:00+30ene32325 0.0 10171612
20:00+27e334264 0.0 101757
11 august, thu
thu1123:00+23nne125087 0.0 101925
02:00+22nne345649 0.0 1019126
05:00+22nne335637 0.0 1018103
08:00+24nne12470 0.0 1018204
11:00+28ese3232100 0.0 10181246
14:00+29ene4228100 0.0 10161589
17:00+29ene3329100 0.0 10151332
20:00+27e4738100 0.0 1014177
12 august, fri
fri1223:00+22ene476189 0.1 1016255
02:00+21ne33656 0.1 1016179
05:00+21nne446123 0.0 1015148
08:00+23ene235263 0.0 1015391
11:00+26ese453592 0.0 10151297
14:00+25se2446100 0.2 1014532
17:00+25ne2447100 0.6 1014465
20:00+19nne7981100 2.7 1015277